Regional Weather Roundup
Issued by NWS Charleston, SC

Current Version | Previous Version | Graphics & Text | Print | Product List | Glossary On
Versions: 1 2 3 4 5 6 7 8 9 10 11 12 13 14 15 16 17 18 19 20 21 22 23 24 25 26 27 28 29 30 31 32 33 34 35 36 37 38 39 40 41 42 43 44 45 46 47 48 49 50
000
ASUS42 KCHS 280427
RWRCHS

REGIONAL WEATHER ROUNDUP
NATIONAL WEATHER SERVICE CHARLESTON SC
1200 AM EDT FRI AUG 28 2015

NOTE: "FAIR" INDICATES FEW OR NO CLOUDS BELOW 12,000 FEET WITH NO
SIGNIFICANT WEATHER AND/OR OBSTRUCTIONS TO VISIBILITY.

NOT ALL STATIONS ARE QUALITY CONTROLLED BY THE NATIONAL
WEATHER SERVICE. USE DATA WITH CAUTION...ESPECIALLY
DEWPOINT OBSERVATIONS.

SCZ027-030-031-034>040-042>050-280500-
...SOUTHEAST SOUTH CAROLINA...

CITY           SKY/WX    TMP DP  RH WIND       PRES   REMARKS
N CHARLESTON   PTCLDY    74  71  91 NE6       30.05R
WATERFRONT PRK   N/A     76  73  90 NE6       30.02R
MOUNT PLEASANT FAIR      73  72  94 N3        30.05S
JOHNS ISLAND   FAIR      75  73  94 CALM      30.05S
PINOPOLIS        N/A     79  73  83 NE10      29.98S
MONCKS CORNER  FAIR      75  72  88 NE5       30.06S
SUMMERVILLE    FAIR      72  72 100 CALM      30.07S
BEAUFORT MCAS  PTCLDY    77  73  87 NE5       30.05R
BEAUFORT ARPT  FAIR      77  73  88 NE5       30.04S
HILTON HEAD IS MOCLDY    81  75  83 NE5       30.05R
WALTERBORO     NOT AVBL
ALLENDALE      FAIR      75  72  88 CALM      30.06R

...SOUTHERN MIDLANDS AND PEE DEE...

CITY           SKY/WX    TMP DP  RH WIND       PRES   REMARKS
GEORGETOWN     NOT AVBL
KINGSTREE      NOT AVBL
ORANGEBURG     PTCLDY    75  69  81 NE7       30.08R
BARNWELL       FAIR      75  72  88 NE3       30.08S
AIKEN          MOCLDY    72  66  83 NE7       30.12S
MANNING        FAIR      70  68  94 N3        30.08S
COLUMBIA       MOCLDY    77  66  68 E9        30.09R
SUMTER         PTCLDY    72  67  83 NE8       30.08R
FLORENCE       PTCLDY    72  66  81 NE6       30.09R
MYRTLE BEACH   CLOUDY    73  66  78 N8        30.09R
N MYRTLE BEACH CLOUDY    72  69  90 N6        30.07R

$$

GAZ063-065-086>088-099>101-113>116-118-119-134>141-150-280500-
...SOUTHEAST GEORGIA...

CITY           SKY/WX    TMP DP  RH WIND       PRES   REMARKS
SAVANNAH ARPT  MOCLDY    77  72  84 E7        30.04R
HUNTER AAF     PTCLDY    77  74  91 CALM      30.01R
FORT STEWART   MOCLDY    74  72  93 CALM      30.01R
STATESBORO     MOCLDY    75  75 100 CALM      30.05R
SYLVANIA       PTCLDY    75  74  97 E3        30.07R
CLAXTON        NOT AVBL

...CSRA...CENTRAL AND FAR SOUTHEAST GEORGIA...

CITY           SKY/WX    TMP DP  RH WIND       PRES   REMARKS
THOMSON        PTCLDY    74  71  92 E5        30.12R
AUGUSTA-BUSH   MOCLDY    74  71  91 CALM      30.06R
AUGUSTA-DANIEL PTCLDY    78  70  76 E7        30.08R
SWAINSBORO     FAIR      77  77 100 E6        30.06S
VIDALIA        CLEAR     73  72  94 NE5       30.04S
EASTMAN        FAIR      74  70  86 E5        30.06S
HAZLEHURST     FAIR      75  71  86 CALM      30.02R
ALMA           MOCLDY    73  70  90 E3        30.02R
WAYCROSS       CLOUDY    76  75  98 CALM      30.02R
JESUP          FAIR      77  73  88 CALM      30.02S
BAXLEY         FAIR      75  73  94 E6        30.02S
BRUNSWICK      MOCLDY    79  73  83 E12       30.02S
SAINT SIMONS   MOCLDY    80  74  81 CALM      30.02R

$$

SCZ027-028-034-036>038-045-046-048>050-GAZ119-141-280500-
...LAKE AND SUPPLEMENTAL COASTAL OBSERVATIONS...

STATION/POSITION TIME  TEMP    WIND        PRES    WAVE   SWELL
                       AIR SEA DIR/SP/G            HT/PER HT/PER/DIR
                 (UTC) (F)     (DEG/KT/KT) (MB)    (FT/S) (FT/S/D)
UPR LAKE MARION  NOT AVBL
WINYAH BAY       0300   75     100/  6     1017.0S
LAKE MURRAY      0300   78      40/  1/ 12 1017.9R
ACE BASIN NERRS  NOT AVBL
FORT PULASKI     0400   82 85   80/ 12/ 14 1017.3R
SAPELO ISLAND    0400   80      90/  4     1016.0S

$$

ANZ835-935-AMZ111-154-330-350-352-354-370-450-454-472-280500-
...C-MAN AND BUOY OBSERVATIONS...

STATION/POSITION TIME  TEMP    WIND        PRES    WAVE   SWELL
                       AIR SEA DIR/SP/G            HT/PER HT/PER/DIR
                 (UTC) (F)     (DEG/KT/KT) (MB)    (FT/S) (FT/S/D)
BUOY 41004       0350   82 85  120/  4/  6 1016.7R   2/ 9   2/ 9
BUOY 41008       0350   82 85  130/ 12/ 14 1016.7R   3/10   2/ 80/10
FOLLY BEACH CMAN 0400   79      50/ 13/ 14 1017.4S
CAPERS NEARSHORE 0308   78      60/ 14/ 17 1017.1R
FRIPP NEARSHORE  NOT AVBL


STATION/POSITION TIME  TEMP    WIND        PRES    WAVE   SWELL
                       AIR SEA DIR/SP/G            HT/PER HT/PER/DIR
                 (UTC) (F)     (DEG/KT/KT) (MB)    (FT/S) (FT/S/D)
5E ST. MARYS GA  0321      86                N/A     2/10   2/110/11
FRYING PAN BUOY  0350   79 81  220/  8/ 10 1017.9R
BUOY 41025       0350   78 83   40/ 16/ 17 1017.8F   4/ 8   3/120/ 8
CAPE LOOKOUT NC  0400   77      40/ 14/ 16 1017.9R
BUOY 41002       0350   80 84  360/  8/ 10 1016.7F   3/ 9   3/130/ 9
BUOY 41010       0320   81 85  180/ 10/ 12 1016.0R
ST AUGUSTINE FL  0400   78 86  220/  4/  5 1016.9R


$$


USA.gov is the U.S. government's official web portal to all federal, state and local government web resources and services.